Location: Unspecified
(0.0000°N, 0.0000°E)
Time: 04:43:25
(UTC+00:00)

CZ-6A DEB - Pass Details

Date: 18 October 2025
Orbit: 818 x 870 km, 98.8° (Epoch: 17 November)

Event Time Altitude Azimuth Distance (km) Brightness Sun altitude
Rises 18:03:38 0° 177° (S) 3,376 ? -4.6°
Reaches altitude 10° 18:06:02 10° 181° (S) 2,448 ? -5.2°
Maximum altitude 18:11:18 53° 257° (WSW) 1,026 ? -6.5°
Drops below altitude 10° 18:16:38 10° 333° (NNW) 2,472 ? -7.8°
Sets 18:19:04 0° 338° (NNW) 3,413 ? -8.4°
